GFSCGP_sfc_rhum_336.txt.gz
RH
48 49 45 30 33 33 36 37 35 26 20 37 35 32 23 16 29 38 33 36 36 37 33 35 38 47 54 60 64 66 69 72 87 97 99 99 99 99 99 98 95 93 92 92
53 49 42 38 39 41 41 42 41 32 27 34 37 35 27 25 22 34 35 34 36 37 33 33 37 45 54 61 60 59 66 71 80 91 95 97 98 99 98 96 95 92 92 92
48 37 36 38 46 43 42 44 43 42 37 35 37 43 35 25 27 32 32 34 33 34 33 31 32 40 49 57 54 55 62 67 74 83 90 94 96 96 98 99 99 98 94 93
40 41 45 47 44 38 50 44 43 46 54 72 39 77 40 26 42 36 34 35 33 32 29 28 29 35 43 48 53 47 52 60 64 74 88 94 97 98 98 99 99 99 98 97
50 47 54 58 44 39 50 47 49 51 61 62 57 69 44 28 44 38 35 33 33 30 29 31 32 32 38 45 50 49 49 52 55 65 76 88 94 97 97 98 99 99 98 97
46 42 48 45 41 44 43 50 50 53 63 94 58 56 51 47 41 35 32 31 30 28 27 28 29 31 38 46 48 50 50 50 56 57 59 72 86 91 95 97 98 99 99 97
47 47 46 46 54 52 58 68 92 93 96 91 43 49 40 46 45 42 30 29 30 31 30 30 33 35 39 44 48 43 53 56 57 60 62 63 65 77 86 93 98 99 99 98
44 65 48 44 51 56 61 68 92 98 86 78 51 71 37 48 40 33 26 27 29 31 33 34 35 35 38 40 45 50 56 55 59 61 64 63 66 68 69 73 91 96 97 97
56 50 46 44 43 47 66 80 55 83 83 96 64 43 49 46 38 29 27 28 32 32 34 36 36 36 38 40 45 49 53 57 57 60 64 64 64 66 68 67 68 71 78 84
62 70 50 50 49 48 58 50 75 88 99 87 64 48 37 45 48 36 32 32 30 31 32 33 35 35 41 42 41 46 51 55 55 59 62 61 67 66 67 69 74 76 73 73
58 66 60 52 55 47 76 83 76 68 73 91 77 55 34 49 49 48 38 29 28 31 32 33 35 33 36 40 40 44 50 58 61 62 62 64 67 71 71 75 78 80 81 83
67 76 87 54 42 38 46 58 57 92 75 63 67 56 42 42 45 47 44 33 29 29 31 33 35 34 37 44 47 52 50 55 57 58 63 67 69 73 79 84 86 86 91 93
67 85 90 72 51 42 52 48 53 76 90 80 92 64 36 42 52 50 56 49 39 35 32 37 37 38 44 49 54 55 57 56 57 57 61 68 76 84 94 95 92 91 97 95
57 85 80 58 40 48 49 41 39 65 92 72 66 64 43 43 65 52 53 54 51 42 44 49 38 51 56 60 64 69 70 72 66 62 68 74 79 83 92 96 95 95 96 98
78 92 89 82 70 64 55 54 52 64 62 80 55 59 57 58 63 58 65 67 63 55 51 49 59 65 68 72 77 86 84 81 80 80 87 90 93 95 94 95 95 95 94 96
78 88 77 95 59 57 62 47 47 46 53 53 53 57 36 34 41 64 79 87 78 84 85 88 89 88 86 91 92 94 93 90 87 90 90 92 93 93 92 94 95 94 95 95
86 88 91 89 55 73 79 56 42 55 63 68 63 55 48 64 69 81 82 85 87 88 89 86 88 90 92 93 94 93 92 94 94 90 88 93 93 94 92 94 96 94 94 96
91 88 87 95 79 89 43 33 33 37 36 41 53 50 38 63 68 76 84 82 88 84 82 87 91 92 92 94 90 92 91 92 94 94 90 90 93 91 93 94 94 94 96 96
88 86 91 96 95 59 44 36 36 47 46 34 36 32 30 30 32 38 73 83 82 82 86 90 93 92 94 92 95 95 92 94 95 90 90 92 95 90 93 92 92 93 96 95
80 90 92 98 100 96 43 40 30 34 61 53 52 62 67 46 57 86 78 85 86 88 91 89 92 92 94 92 96 96 92 95 95 92 92 93 92 94 91 88 90 95 96 96
100 100 98 95 96 83 49 44 38 73 74 66 69 67 72 75 89 83 81 84 91 94 92 95 95 95 94 95 96 93 92 96 96 94 94 93 92 95 92 90 95 96 96 96
88 95 99 95 99 94 56 57 67 87 75 71 76 74 79 73 70 73 81 84 80 84 93 94 94 93 92 92 90 89 86 93 91 91 87 85 88 91 91 94 94 96 95 94
72 75 83 78 78 69 89 94 91 90 92 75 77 74 77 79 72 68 69 73 75 75 70 79 79 74 77 83 63 61 83 82 84 88 86 83 82 82 89 93 95 95 93 93
73 83 82 68 68 73 92 88 80 78 82 70 64 66 62 67 67 60 58 58 60 61 66 77 80 78 75 68 63 70 72 77 90 87 82 78 77 78 80 85 86 91 93 91
70 70 81 77 55 63 82 72 72 64 66 64 64 68 67 69 63 62 76 66 63 67 72 76 80 78 75 67 70 77 76 85 89 86 81 78 76 80 80 80 88 87 80 81
62 62 70 72 69 80 68 69 65 70 68 60 64 77 61 62 68 71 76 74 77 79 78 81 78 78 77 78 79 79 86 90 87 87 82 78 77 77 77 80 84 78 75 75

GFSCGP_sfc_rhum_339.txt.gz
RH
54 52 54 50 44 44 44 46 48 39 29 37 42 40 36 32 30 44 42 45 45 41 39 40 44 53 61 62 68 62 67 71 84 94 99 98 99 99 99 99 97 95 95 94
54 52 55 47 46 46 49 52 52 42 36 37 40 38 30 30 31 38 41 44 42 40 35 34 38 48 54 61 63 58 62 69 77 88 95 98 99 99 99 97 97 96 96 95
53 52 43 43 50 47 50 52 54 52 50 46 47 53 41 31 40 37 40 38 37 36 36 34 35 44 51 53 58 49 56 63 73 82 89 94 96 96 98 99 99 98 96 95
47 50 50 54 51 47 54 54 54 56 64 74 53 87 50 35 46 42 38 40 38 34 33 33 36 43 49 52 53 48 47 55 62 75 87 94 97 98 98 98 99 99 98 97
52 53 56 60 53 45 56 54 55 58 67 74 67 78 55 38 49 45 42 38 37 33 33 35 37 39 45 51 56 57 56 51 55 66 77 88 92 96 97 97 98 98 98 98
54 48 50 54 49 50 51 58 59 65 70 93 64 62 59 51 43 43 43 39 34 30 32 33 35 38 44 50 54 58 60 59 61 61 62 72 83 88 94 97 98 99 99 98
60 62 54 50 58 55 58 72 83 82 93 86 54 58 47 45 46 44 39 40 37 33 35 35 36 40 44 49 54 51 61 61 65 68 68 68 68 72 80 90 96 98 99 99
49 57 53 51 56 60 67 70 85 99 88 70 56 67 44 50 38 32 34 35 37 38 37 37 38 40 43 46 50 57 63 62 65 67 71 72 75 73 72 74 83 86 94 98
58 52 50 48 49 51 68 80 63 86 94 94 73 54 42 50 43 31 31 34 38 39 40 39 44 44 43 43 49 54 59 62 63 66 70 72 73 74 78 75 73 76 80 73
66 60 52 55 52 52 59 57 73 89 97 98 75 47 39 40 44 45 36 32 33 35 39 40 39 38 45 45 44 50 57 61 62 64 66 66 73 74 73 75 79 78 80 82
61 59 60 52 57 61 78 85 80 73 82 92 88 50 43 49 54 56 52 37 34 35 38 40 39 36 39 45 43 46 51 58 61 64 67 69 70 71 74 77 82 83 83 87
71 78 92 61 50 45 51 62 71 91 80 85 88 62 36 42 50 51 54 56 39 35 38 38 39 37 41 47 50 56 57 58 58 61 65 69 70 70 72 76 80 85 89 88
66 82 77 55 46 46 47 50 55 83 89 82 94 58 36 36 48 54 62 58 65 52 43 48 52 50 55 62 66 66 68 72 68 60 64 67 72 77 88 90 87 83 90 93
60 90 62 51 36 62 51 51 50 67 95 70 60 59 41 39 64 59 52 50 53 57 47 53 54 62 64 66 69 72 73 76 75 76 73 74 70 75 89 93 92 91 92 93
74 74 92 88 79 74 62 59 60 78 69 78 56 69 61 63 71 68 65 64 62 69 55 54 62 68 69 77 83 88 87 82 80 82 89 91 89 91 94 94 94 93 92 94
84 74 84 88 69 66 67 49 51 52 65 74 61 63 42 42 49 66 71 83 79 88 90 91 89 84 82 91 94 94 92 89 82 87 88 90 92 93 93 93 93 94 93 96
82 88 86 70 65 78 68 56 46 61 69 66 72 64 57 60 58 67 74 85 86 90 90 85 88 89 94 97 88 90 92 90 90 90 89 90 91 92 92 92 96 92 90 98
92 89 92 90 80 75 43 39 36 44 45 53 67 70 57 73 63 78 80 90 86 88 82 85 91 91 94 91 91 93 93 93 92 91 91 91 92 92 92 94 92 95 96 96
88 88 92 84 97 57 44 37 39 52 57 61 64 71 68 60 47 68 80 88 95 96 94 95 95 96 93 91 93 92 90 93 95 94 94 94 94 95 94 95 90 90 96 96
86 88 81 99 99 95 47 45 33 35 72 74 75 77 78 64 59 92 90 87 89 93 96 98 97 96 92 90 92 88 87 95 96 94 93 95 93 91 93 95 94 92 97 93
100 100 98 100 100 85 52 44 39 73 66 76 76 80 80 88 95 91 86 85 89 95 95 95 93 97 97 94 92 88 90 93 92 90 93 92 92 87 90 94 96 94 94 95
87 98 99 100 100 93 53 57 61 77 77 77 79 80 81 73 69 75 75 77 84 90 89 90 92 92 89 90 82 86 84 90 89 83 80 82 83 82 82 85 90 94 95 95
69 74 86 80 77 79 92 86 96 93 93 79 77 68 65 65 60 59 62 62 59 63 64 78 79 71 74 79 62 61 76 76 80 86 82 80 80 81 81 77 81 94 95 96
71 88 76 66 69 96 94 93 85 83 87 74 69 67 65 72 64 57 52 51 57 62 66 73 78 74 72 65 62 66 71 73 84 85 83 78 77 77 75 71 73 87 94 96
66 70 79 76 62 91 89 82 78 71 67 65 66 75 70 67 60 58 64 64 63 68 72 77 81 79 75 70 74 77 76 82 86 83 80 79 78 81 78 74 77 80 82 88
67 63 67 67 63 75 77 75 65 69 67 60 67 82 64 65 71 74 77 76 81 84 83 84 84 83 82 82 82 81 82 85 90 90 83 81 81 80 78 78 77 66 65 64

GFSCGP_sfc_rhum_342.txt.gz
RH
57 48 55 53 47 45 46 45 45 41 34 41 47 41 34 33 36 39 50 52 48 42 40 39 42 49 52 50 56 63 64 66 80 92 97 98 99 99 99 99 99 98 97 96
45 58 56 49 48 46 48 52 50 47 45 46 46 46 41 38 45 48 49 48 45 40 35 34 41 47 52 54 53 53 56 60 74 87 93 98 99 99 98 98 99 99 98 97
44 53 45 45 48 43 48 54 60 56 55 49 52 42 50 43 43 42 44 43 39 38 37 37 40 48 53 55 57 53 52 56 66 78 87 91 94 95 97 98 99 99 98 98
47 51 50 52 50 49 52 60 58 56 60 65 53 72 52 45 48 44 43 42 40 38 37 37 42 46 52 56 57 55 56 53 56 69 85 92 96 97 98 98 98 99 98 98
56 55 53 56 58 50 54 58 60 59 68 76 63 77 52 48 45 45 44 44 42 40 38 38 40 42 48 54 60 63 62 57 58 61 72 85 90 92 95 97 98 98 98 98
56 51 52 55 52 53 54 58 55 71 73 87 65 66 61 48 47 49 42 46 37 36 39 38 39 41 46 52 58 61 62 61 63 66 64 70 80 86 91 93 97 98 99 98
53 61 57 52 55 57 59 54 73 66 81 75 58 63 53 42 49 50 44 42 40 39 39 38 40 42 46 51 56 54 64 63 66 68 70 71 69 74 84 92 92 94 94 96
49 53 54 53 56 58 65 58 73 46 84 71 58 75 37 52 37 30 35 40 41 38 38 39 42 44 45 47 53 59 63 63 68 69 72 74 74 72 70 75 85 88 91 94
52 48 50 50 52 49 68 81 63 83 98 93 77 54 30 46 44 43 34 34 37 39 41 40 42 46 47 45 50 55 59 62 64 69 71 70 70 70 76 76 70 78 81 77
58 56 52 52 50 56 58 54 65 86 76 92 80 57 39 45 58 51 54 56 44 38 41 45 44 40 46 46 45 51 57 60 61 63 65 65 70 72 73 74 77 81 82 82
61 46 56 51 55 60 77 82 81 71 79 92 92 57 40 52 55 59 62 58 61 52 42 44 45 39 47 54 56 63 68 72 72 70 72 72 74 70 72 76 82 84 83 86
70 70 84 60 54 52 63 62 68 86 74 88 84 59 37 51 53 48 48 47 47 52 51 43 46 45 60 75 78 78 76 76 75 68 68 67 65 66 70 78 78 81 87 88
68 74 69 55 42 47 48 49 62 86 89 86 88 61 39 36 41 49 61 58 60 57 60 56 60 61 69 69 67 68 72 73 70 69 75 74 73 72 83 87 84 80 87 91
63 88 57 47 34 55 50 47 49 69 89 73 67 63 44 47 63 56 52 55 64 60 67 66 65 68 68 72 77 83 82 78 78 77 78 81 85 83 87 89 89 90 90 92
68 66 91 88 81 79 65 60 58 79 78 68 47 77 63 77 76 72 63 61 65 73 79 72 67 71 78 82 87 87 86 78 78 79 84 88 88 89 92 89 88 89 89 92
82 81 85 86 68 69 72 60 65 62 81 75 70 70 50 46 62 87 92 91 80 90 90 86 85 87 90 91 89 90 91 90 85 90 91 92 91 90 91 91 91 91 87 88
80 85 82 69 69 72 62 57 47 67 74 67 70 67 63 71 84 98 95 95 96 94 93 92 95 95 93 95 89 91 92 91 92 93 92 92 92 92 93 93 93 91 89 93
88 86 89 79 82 67 41 46 41 46 47 63 72 79 66 82 74 90 95 97 98 98 96 94 97 97 93 93 91 94 91 94 94 92 89 89 89 88 86 91 94 94 94 92
87 87 97 77 93 54 46 43 42 55 52 59 58 71 69 67 66 81 89 95 99 100 99 98 99 97 95 94 93 95 89 97 93 91 89 89 87 85 84 84 88 92 94 91
82 83 76 98 86 71 41 49 32 40 72 73 73 76 80 69 71 80 95 88 88 93 98 98 97 97 93 91 90 88 89 94 91 88 88 93 90 85 84 85 87 95 93 92
100 100 88 100 97 78 48 44 38 71 56 78 75 78 79 88 92 92 92 84 90 90 94 93 96 96 94 92 86 86 88 91 91 84 89 88 87 84 84 84 82 84 90 94
92 97 100 100 100 80 52 58 61 70 78 79 79 81 80 72 64 70 73 76 82 87 91 90 94 93 91 90 77 80 75 88 81 80 82 81 82 81 80 82 80 78 81 91
61 74 79 76 72 73 82 77 95 92 89 83 80 69 67 67 62 62 62 54 52 56 60 72 75 73 70 74 62 59 73 76 79 82 84 82 82 81 79 73 72 77 78 88
77 89 82 74 80 82 94 95 87 84 90 78 72 70 68 76 64 55 52 52 56 58 65 74 79 79 76 69 65 72 74 76 84 88 86 80 79 79 77 71 70 79 86 90
66 70 78 75 84 89 91 86 82 79 72 71 74 78 72 68 60 58 65 65 63 66 73 80 84 83 81 76 78 81 78 84 90 89 85 83 80 84 81 73 74 72 68 73
68 62 58 57 58 71 75 77 71 74 72 64 72 85 64 64 70 72 78 75 81 86 85 88 87 87 86 86 87 86 87 91 96 93 86 84 84 83 81 82 82 72 71 69

GFSCGP_sfc_rhum_345.txt.gz
RH
55 55 55 54 48 45 43 42 45 42 40 50 49 46 41 40 44 50 56 54 45 40 36 37 42 49 50 48 51 55 57 60 73 88 95 97 98 98 97 97 98 99 99 99
51 64 58 50 49 45 46 47 54 49 47 52 52 42 45 45 48 54 53 48 43 40 36 36 42 49 54 56 55 54 57 59 64 81 90 95 98 98 98 96 97 97 98 99
45 57 48 44 48 40 58 52 63 58 56 55 53 34 48 43 46 43 44 42 39 40 38 38 42 49 55 56 60 54 56 59 60 70 83 86 88 92 94 94 96 98 98 99
56 52 48 51 55 51 46 59 60 59 59 56 57 60 46 44 49 44 44 46 41 37 36 38 43 46 53 58 61 58 58 56 56 63 80 89 94 96 94 97 97 97 98 98
55 56 54 58 57 53 52 60 63 61 68 75 60 74 50 48 45 50 46 44 40 36 37 39 42 44 48 54 62 63 62 57 60 62 64 79 88 92 90 91 91 94 96 96
59 54 56 56 57 57 57 57 44 68 71 81 64 66 49 53 58 53 46 44 42 35 36 36 37 42 47 52 58 61 62 61 63 63 63 63 71 78 86 92 93 92 92 92
51 60 58 54 54 57 53 46 72 66 76 70 61 60 49 52 50 43 41 44 44 37 37 39 38 43 46 50 56 55 64 62 68 67 64 67 66 70 76 81 89 88 90 93
51 62 56 54 55 53 68 50 72 42 68 64 60 78 40 51 51 44 42 44 43 43 42 44 42 43 48 45 51 56 62 63 68 67 68 66 70 72 71 70 80 84 88 91
46 49 52 51 53 47 69 82 61 82 99 91 76 55 37 52 53 54 57 53 57 55 48 46 46 47 51 49 53 58 62 65 66 69 72 71 70 72 74 75 75 78 78 75
50 63 52 55 51 56 59 57 68 85 58 69 75 64 40 58 54 52 57 60 57 54 53 48 50 49 48 56 60 71 72 75 74 74 76 78 80 74 73 72 75 79 77 80
57 44 59 51 53 58 77 82 81 69 75 82 92 68 42 54 56 54 56 51 54 55 55 52 51 47 58 63 71 77 76 75 74 73 76 79 69 66 67 71 72 77 79 84
62 59 84 62 64 58 64 56 71 79 69 89 87 72 49 53 54 53 53 52 54 60 58 60 62 58 78 81 71 64 74 76 72 68 70 74 74 71 72 75 78 74 78 82
67 69 70 55 47 52 52 55 68 83 87 83 82 62 50 44 49 51 58 58 63 63 71 71 72 74 75 75 78 82 83 81 78 71 70 68 71 77 90 90 86 81 85 86
58 83 61 48 34 58 52 53 60 69 86 81 71 63 39 48 67 60 67 74 74 75 82 77 76 79 86 87 85 86 84 80 78 75 77 80 81 80 87 91 91 90 90 90
68 65 83 88 79 76 58 51 62 74 74 61 45 64 69 76 82 86 83 78 81 79 80 87 89 94 90 87 85 86 85 82 82 85 89 92 91 89 89 89 90 92 92 89
79 91 83 78 70 77 79 66 68 68 86 72 69 64 48 58 72 92 95 94 89 95 94 93 91 91 87 90 91 91 91 93 87 92 93 90 87 86 86 86 90 89 90 92
78 85 80 64 69 71 58 48 51 72 81 76 80 68 59 76 86 99 98 99 100 99 98 97 98 97 90 95 90 94 93 94 94 93 92 89 86 84 83 83 88 86 91 91
84 80 86 78 81 60 42 48 48 50 50 66 74 78 64 82 77 93 98 99 100 100 100 99 99 97 94 92 90 93 90 94 93 92 92 90 87 86 83 83 83 87 90 92
85 82 96 78 85 52 40 43 49 56 48 49 57 63 65 69 73 94 88 97 98 99 98 99 99 98 98 95 92 95 88 96 93 91 92 93 92 87 85 84 86 87 88 88
75 80 78 96 72 63 38 43 41 40 58 64 56 68 73 70 83 81 95 93 91 92 95 100 99 98 94 91 90 84 89 92 92 89 84 93 93 90 86 87 88 85 89 88
97 96 79 100 86 72 43 39 41 53 41 74 68 71 79 84 87 89 93 82 89 94 95 96 99 98 96 91 86 85 89 90 94 82 84 85 85 84 85 84 84 85 83 83
90 90 93 100 96 69 50 52 57 60 78 75 77 78 78 74 72 78 81 86 86 87 88 91 88 87 88 88 78 81 76 87 82 82 83 84 84 83 81 83 77 76 76 80
67 73 77 73 66 74 48 76 92 88 87 83 80 79 78 72 69 65 66 56 53 61 62 78 76 72 76 78 64 67 80 81 83 86 88 86 84 82 79 76 75 80 77 84
82 90 82 71 74 76 87 97 90 86 88 82 77 75 70 75 67 56 52 53 58 60 66 80 83 80 80 73 70 75 78 80 89 92 89 83 81 83 79 74 71 78 80 80
70 73 82 75 78 84 85 89 84 79 78 76 75 78 74 72 60 57 62 65 64 69 75 83 87 84 84 79 82 86 82 88 93 92 88 84 81 84 81 74 77 76 71 76
72 63 54 51 55 68 56 71 73 77 78 74 79 86 69 71 72 73 78 77 82 88 88 89 89 90 88 90 90 89 90 94 98 95 89 87 87 86 82 82 82 74 75 75